This demonstration page uses our WeatherBlox Daily Observations layout. Learn more.

Left ArrowRight Arrow

36.19886, -115.1175

Hourly Observations for April 21, 2021

Temp ( °F °C ) Dew Point ( °F °C ) Humidity (%) Winds ( mph kmh ) Pressure ( in mb ) Visibility ( mi km ) Precip ( " mm )
12:53 am 00:53 Clear 75 23.9 27 -2.8 17 17 S 15 24 29.60 1002 10 16 N/A
1:53 am 01:53 Clear 72 22.2 30 -1.1 21 21 S 14 22 29.59 1002 10 16 N/A
2:53 am 02:53 Clear 71 21.7 29 -1.7 21 21 S 15 24 29.56 1001 10 16 N/A
3:53 am 03:53 Clear 69 20.6 29 -1.7 22 22 SSE 22 35 29.55 1001 10 16 N/A
4:53 am 04:53 Clear 69 20.6 26 -3.3 20 20 S 20 31 29.54 1000 10 16 N/A
5:53 am 05:53 Clear 68 20 18 -7.8 15 15 S 12 19 29.55 1001 10 16 N/A
6:53 am 06:53 Sunny 68 20 16 -8.9 13 13 S 15 24 29.57 1001 10 16 N/A
7:53 am 07:53 Sunny 70 21.1 17 -8.3 13 13 SSE 18 30 29.57 1001 10 16 N/A
8:53 am 08:53 Sunny 72 22.2 13 -10.6 10 10 SSW 17 28 29.57 1001 10 16 N/A
9:53 am 09:53 Sunny 73 22.8 16 -8.9 11 11 S 18 30 29.56 1001 10 16 N/A
10:53 am 10:53 Sunny 74 23.3 18 -7.8 12 12 S 21 33 29.58 1002 10 16 N/A
11:53 am 11:53 Sunny 75 23.9 20 -6.7 12 12 S 17 28 29.57 1001 10 16 N/A
12:53 pm 12:53 Sunny 77 25 19 -7.2 11 11 SSW 22 35 29.55 1001 10 16 N/A
1:53 pm 13:53 Sunny 78 25.6 21 -6.1 12 12 SSW 18 30 29.53 1000 10 16 N/A
2:53 pm 14:53 Sunny 79 26.1 20 -6.7 11 11 S 22 35 29.52 1000 10 16 N/A
3:53 pm 15:53 Sunny 78 25.6 18 -7.8 10 10 undefined N/A 29.52 1000 10 16 N/A
4:53 pm 16:53 Sunny with Light Rain 77 25 27 -2.8 16 16 NNW 31 50 29.51 999 9 14 0.00 0.00
5:53 pm 17:53 Sunny 74 23.3 29 -1.7 19 19 NNW 29 46 29.54 1000 10 16 0.00 0.00
6:53 pm 18:53 Mostly Sunny 72 22.2 31 -0.6 22 22 NNW 21 33 29.56 1001 10 16 N/A
7:53 pm 19:53 Clear 71 21.7 31 -0.6 23 23 NNW 21 33 29.58 1002 10 16 N/A
8:53 pm 20:53 Clear 71 21.7 32 undefined 24 24 NW 24 39 29.61 1003 10 16 N/A
9:53 pm 21:53 Clear 70 21.1 33 0.6 26 26 NW 13 20 29.62 1003 10 16 N/A
10:53 pm 22:53 Clear 69 20.6 32 undefined 25 25 NW 13 20 29.63 1003 10 16 N/A
11:53 pm 23:53 Clear 68 20 32 undefined 26 26 NW 16 26 29.64 1004 10 16 N/A

Powered by AerisWeather